Location: *
(40.9644°S, 106.2503°E)
Time: 05:25:20
(UTC+00:00)

Daily predictions for brighter satellites

Satellite Brightness Start Highest point End
(mag) Time Altitude Azimuth Time Altitude Azimuth Time Altitude Azimuth
ATLAS 5 CENTAUR R/B 3.8 09:57:27 10° NNE 10:03:07 26° ENE 10:08:34 10° ESE
STARLINK-76 4.5 10:01:34 10° NNW 10:04:59 32° NE 10:08:27 10° ESE
Cosmos 2123 Rocket 4.0 09:59:49 10° S 10:06:04 63° E 10:12:15 10° NNE
STARLINK-23 4.4 10:03:11 10° NNW 10:06:38 33° NE 10:10:08 10° ESE
STARLINK-71 4.4 10:03:46 10° NNW 10:07:32 38° NE 10:11:21 10° ESE
Cosmos 2228 Rocket 3.1 10:02:59 10° S 10:07:36 74° E 10:12:04 10° NNE
STARLINK-29 4.3 10:05:18 10° SSW 10:08:06 24° SSE 10:10:54 10° E
STARLINK-32 4.4 10:04:44 10° NNW 10:08:13 34° NE 10:11:44 10° ESE
Cosmos 405 3.8 10:06:25 10° SSE 10:09:37 29° ESE 10:12:45 10° NE
STARLINK-40 4.3 10:06:33 10° NNW 10:10:06 36° NE 10:13:40 10° ESE
Cosmos 2237 Rocket 3.3 10:06:29 10° NNE 10:11:03 25° ENE 10:15:38 10° SE
STARLINK-44 4.3 10:07:55 10° NNW 10:11:27 37° NE 10:15:01 10° ESE
STARLINK-1306 4.2 10:08:49 10° WNW 10:12:59 56° SW 10:17:13 10° SE
STARLINK-1299 4.4 10:08:58 10° WNW 10:13:10 50° SSW 10:17:25 10° SE
STARLINK-37 4.1 10:09:51 10° NNW 10:13:29 41° NE 10:17:09 10° ESE
SL-16 R/B 4.5 10:10:12 10° W 10:14:07 19° SW 10:18:04 10° S
CZ-4B R/B 4.0 10:09:24 10° SE 10:14:17 32° E 10:19:11 10° NNE
STARLINK-36 4.1 10:11:08 10° NNW 10:14:42 39° NE 10:18:16 10° ESE
STARLINK-1281 4.1 10:11:26 10° WNW 10:15:33 57° SW 10:19:44 10° SE
H-2A R/B 3.9 10:12:45 10° SE 10:16:03 25° E 10:19:19 10° NNE
STARLINK-68 3.9 10:12:53 10° NNW 10:16:33 45° NE 10:20:07 11° ESE
Cosmos 1743 Rocket 4.3 10:12:14 10° NNW 10:16:33 58° W 10:21:00 10° S
USA 234 4.0 10:10:29 10° SE 10:16:47 48° SSW 10:23:03 10° WNW
ADEOS Rocket 3.7 10:09:35 10° NNE 10:17:08 86° WNW 10:25:04 10° SSW
STARLINK-63 4.0 10:14:34 10° NNW 10:18:14 45° NE 10:21:44 11° ESE
STARLINK-35 4.0 10:16:01 10° NNW 10:19:39 44° NE 10:23:03 12° ESE
Cosmos 1484 Rocket 4.3 10:16:14 10° S 10:19:50 37° WSW 10:23:20 10° NW
STARLINK-1310 4.2 10:16:27 10° WNW 10:20:33 52° SSW 10:24:42 10° SE
STARLINK-51 3.9 10:17:47 10° NNW 10:21:28 46° NE 10:24:49 12° ESE
Cosmos 158 Rocket 4.2 10:17:33 10° N 10:22:32 54° ENE 10:27:44 10° SSE
Okean O Rocket 2.4 10:18:34 10° SSE 10:22:36 33° E 10:26:37 10° NNE
STARLINK-30 3.9 10:19:24 10° NNW 10:23:05 47° NE 10:26:23 13° ESE
Sich 1 3.3 10:18:55 10° NNE 10:23:09 50° E 10:27:29 10° SSE
STARLINK-72 3.8 10:21:13 10° NNW 10:24:57 50° NE 10:28:12 13° ESE
STARLINK-1319 4.3 10:21:29 10° WNW 10:25:33 48° SSW 10:29:33 11° SE
Cosmos 1346 Rocket 3.0 10:22:09 10° NNW 10:26:07 77° W 10:30:09 10° S
SL-16 R/B 4.0 10:25:23 10° ENE 10:27:14 12° E 10:28:17 11° E
Cosmos 2112 Rocket 4.1 10:22:27 10° N 10:27:40 61° ENE 10:32:55 10° SSE
STARLINK-1028 4.2 10:23:55 10° NNW 10:27:53 42° NE 10:31:11 14° ESE
STARLINK-59 3.7 10:24:23 10° NW 10:28:09 56° NE 10:31:18 14° ESE
PSLV R/B 4.0 10:25:10 10° S 10:29:22 82° WSW 10:33:27 10° NNW
STARLINK-56 3.7 10:26:02 10° NW 10:29:47 55° NE 10:32:52 15° ESE
Starlink 7 placeholder 2.9 10:26:50 10° SW 10:29:52 72° NW 10:32:44 10° NE
Shenzhou-11 Module 1.5 10:27:22 10° W 10:29:57 75° SSW 10:31:43 18° ESE
STARLINK-1277 4.4 10:26:30 10° WNW 10:30:32 45° SSW 10:34:19 12° SE
STARLINK-73 3.6 10:27:41 10° NW 10:31:28 57° NE 10:34:28 15° ESE
Cosmos 2333 Rocket 2.6 10:25:54 10° NNW 10:31:39 71° WSW 10:37:29 10° SSE
Cosmos 1934 Rocket 4.4 10:26:23 10° NNW 10:32:42 72° W 10:39:10 10° S
STARLINK-1021 4.1 10:28:49 10° NNW 10:32:49 47° NE 10:35:58 16° ESE
STARLINK-38 3.6 10:29:20 10° NW 10:33:07 60° NE 10:36:04 16° ESE
SMAP 4.0 10:29:13 10° SE 10:33:18 28° E 10:37:19 10° NNE
STARLINK-65 3.6 10:31:01 10° NW 10:34:48 62° NE 10:37:42 17° ESE
STARLINK-24 3.6 10:32:38 10° NW 10:36:40 70° NE 10:39:45 17° ESE
STARLINK-25 3.5 10:33:12 10° NW 10:36:54 62° NE 10:39:34 18° ESE
STARLINK-53 3.5 10:33:16 10° NW 10:37:08 69° NE 10:40:02 17° ESE
Cosmos 2278 Rocket 2.6 10:32:00 10° S 10:37:25 42° ESE 10:42:47 10° NE
STARLINK-1019 4.0 10:33:44 10° NNW 10:37:48 52° NE 10:40:45 18° ESE
Cosmos 1844 Rocket 4.2 10:33:05 10° SW 10:38:23 41° WNW 10:43:39 10° N
Meteor 1-10 Rocket 4.2 10:33:07 10° S 10:38:51 81° E 10:44:35 10° NNE
STARLINK-1012 3.8 10:38:39 10° NW 10:42:45 57° NE 10:45:32 20° ESE
Cosmos 1605 Rocket 4.0 10:37:42 10° N 10:43:58 89° W 10:50:12 10° S
STARLINK-52 3.6 10:41:17 10° SW 10:44:23 38° SSE 10:45:57 23° E
SJ-7 4.3 10:40:49 10° SSE 10:44:53 77° ENE 10:48:54 10° N
BREEZE-M DEB (TANK) 3.7 10:41:28 10° SW 10:45:21 67° SSE 11:00:12 10° ENE
BREEZE-M DEB (TANK) 4.5 10:42:52 10° N 10:46:26 31° ENE 10:53:18 16° ESE
YAOGAN 6 3.7 10:46:10 21° ESE 10:47:30 25° E 10:50:37 10° NNE
Cosmos 2360 Rocket 4.3 10:44:01 10° WNW 10:48:21 22° SW 10:52:43 10° S
Cosmos 2056 Rocket 3.7 10:43:48 10° S 10:48:59 47° ESE 10:54:03 10° NE
Cosmos 1666 Rocket 3.5 10:45:48 10° N 10:50:09 68° E 10:54:33 10° SSE
FALCON 9 DEB 4.0 10:48:35 10° SW 10:51:51 33° SSE 10:52:53 27° ESE
Cosmos 1633 Rocket 3.1 10:47:44 10° N 10:52:05 58° E 10:56:32 10° SSE
STARLINK-1026 3.6 10:48:32 10° NW 10:52:42 70° NE 10:55:07 24° ESE
H-2A R/B 4.3 10:49:14 10° S 10:52:54 30° WSW 10:56:24 10° NW
STARLINK-50 3.5 10:48:55 10° NW 10:52:59 88° NNE 10:55:25 24° SE
NOAA 6 4.1 10:49:47 10° SSE 10:55:00 86° WSW 11:00:09 10° NNW
CZ-2C R/B 4.0 10:58:14 19° SE 10:58:14 19° SE 11:00:57 10° SSE
STARLINK-1013 3.6 10:53:27 10° NW 10:57:38 77° NE 10:59:51 27° ESE
Cosmos 1818 3.5 10:53:04 10° NNW 10:58:28 78° ENE 11:02:42 17° SE
Cosmos 1862 4.5 10:56:17 10° NNW 11:00:09 45° WSW 11:04:07 10° S
STARLINK-1009 3.6 10:58:25 10° NW 11:02:36 84° NE 11:04:39 30° SE
STARLINK-1320 4.5 11:01:28 10° SSW 11:03:40 22° SSE 11:03:40 22° SSE
STARLINK-1324 4.5 11:02:07 10° SSW 11:04:18 22° SSE 11:04:18 22° SSE
SL-4 R/B 2.8 11:03:02 10° WSW 11:06:42 49° NW 11:10:37 10° NNE
STARLINK-1015 3.6 11:03:24 10° NW 11:07:35 89° SW 11:09:26 33° SE
Cosmos 1680 Rocket 4.4 11:03:19 10° NW 11:08:28 50° WSW 11:13:38 10° S
Cosmos 2219 Rocket 3.6 11:06:11 10° NW 11:11:25 37° WSW 11:16:44 10° S
STARLINK-1016 3.6 11:08:22 10° NW 11:12:34 82° SW 11:14:13 36° SE
ATLAS 2AS CENTAUR R/B 3.7 11:07:32 10° SSW 11:12:40 23° SE 11:13:30 23° SE
STARLINK-60 4.4 11:12:23 10° WSW 11:15:27 38° NW 11:17:54 14° NNE
Cosmos 1812 3.7 11:11:59 10° SSW 11:15:48 49° W 11:19:32 10° N
STARLINK-81 3.7 11:12:27 10° WNW 11:16:19 62° SW 11:17:38 38° SSE
STARLINK-1008 3.7 11:13:22 10° WNW 11:17:33 75° SW 11:19:00 39° SE
STARLINK-54 3.9 11:13:49 10° WNW 11:17:39 55° SW 11:18:55 36° SSE
STARLINK-77 3.8 11:15:15 10° WNW 11:19:05 59° SW 11:20:16 39° SSE
Cosmos 1452 Rocket 4.3 11:14:36 10° S 11:18:42 31° SE 11:18:42 31° SE
Cosmos 1238 Rocket 3.1 11:15:57 10° NNW 11:20:36 74° W 11:24:03 13° S
Cosmos 2100 Rocket 3.9 11:14:42 10° N 11:20:54 72° E 11:27:06 10° SSE
STARLINK-1014 3.8 11:18:21 10° WNW 11:22:34 69° SW 11:23:50 42° SSE
Cosmos 1420 Rocket 4.2 11:17:24 10° S 11:22:37 49° ESE 11:25:33 24° NE
Helios 1A Rocket 2.8 11:21:53 43° SE 11:23:01 62° ENE 11:27:02 10° N
STARLINK-79 3.9 11:20:07 10° WNW 11:23:55 53° SW 11:24:54 41° SSE
Cosmos 1461 2.6 11:20:16 10° SSW 11:24:15 90° E 11:26:04 30° NNE
STARLINK-78 4.0 11:21:37 10° WNW 11:25:23 51° SW 11:26:17 41° S
Cosmos 1980 3.9 11:20:59 10° NNW 11:26:39 71° WSW 11:31:16 16° SSE
Lacrosse 5 rocket 1.6 11:22:39 10° NNW 11:26:50 55° NE 11:27:19 51° ENE
STARLINK-57 4.1 11:23:24 10° WNW 11:27:09 48° SSW 11:28:00 40° S
STARLINK-1010 4.0 11:23:01 10° WNW 11:27:16 60° SW 11:28:27 42° SSE
STARLINK-1025 3.9 11:23:23 10° WNW 11:27:32 63° SW 11:28:35 46° SSE
Envisat 2.9 11:22:30 10° SSE 11:27:41 90° WNW 11:32:48 10° NNW
STARLINK-49 4.1 11:24:58 10° WNW 11:28:44 49° SSW 11:29:30 42° S
STARLINK-27 4.1 11:26:23 10° WNW 11:30:07 47° SSW 11:30:48 42° S
STARLINK-74 4.1 11:28:06 10° WNW 11:31:50 46° SSW 11:32:26 42° S
STARLINK-1017 4.0 11:28:21 10° WNW 11:32:29 58° SW 11:33:19 47° SSE
STARLINK-39 4.1 11:29:39 10° WNW 11:33:21 45° SSW 11:33:54 42° S
Meteor 1-20 Rocket 4.2 11:29:06 10° N 11:34:47 69° E 11:39:06 19° SSE
STARLINK-31 4.2 11:31:17 10° WNW 11:34:57 43° SSW 11:35:26 41° S
STARLINK-69 4.3 11:33:04 10° WNW 11:36:41 39° SSW 11:37:06 38° SSW
STARLINK-1023 4.1 11:33:21 10° WNW 11:37:27 54° SW 11:38:05 48° S
Cosmos 2297 4.5 11:32:28 10° S 11:36:30 33° SSE 11:36:30 33° SSE
STARLINK-21 4.3 11:34:32 10° WNW 11:38:11 41° SSW 11:38:30 40° SSW
Cosmos 2061 Rocket 3.9 11:32:12 10° N 11:38:23 62° E 11:43:27 16° SSE
Feng Yun 1-1 Rocket 4.1 11:35:57 28° SSE 11:38:58 72° ENE 11:44:25 10° N
BREEZE-M DEB (TANK) 4.4 11:19:05 10° NW 11:39:02 68° NNE 11:41:08 43° E
Cosmos 1470 Rocket 3.7 11:34:52 10° N 11:39:23 78° W 11:42:02 25° S
STARLINK-45 4.4 11:36:26 10° W 11:40:01 37° SSW 11:40:17 36° SSW
STARLINK-70 4.5 11:38:05 10° W 11:41:41 37° SSW 11:41:53 37° SSW
STARLINK-1007 4.2 11:38:25 10° WNW 11:42:30 50° SSW 11:42:55 47° SSW
STARLINK-76 4.4 11:39:31 10° W 11:43:07 38° SSW 11:43:14 37° SSW
STARLINK-29 4.2 11:41:11 10° WSW 11:44:00 43° WNW 11:44:00 43° WNW
STARLINK-23 4.5 11:41:13 10° W 11:44:47 37° SSW 11:44:50 37° SSW
Cosmos 371 Rocket 4.3 11:41:04 10° S 11:43:48 31° S 11:43:48 31° S
Cosmos 1441 Rocket 3.4 11:42:54 10° NNW 11:46:40 74° WNW 11:46:40 74° WNW
STARLINK-1048 4.3 11:43:27 10° WNW 11:47:30 46° SSW 11:47:42 46° SSW
ATLAS 5 CENTAUR R/B 2.9 11:40:20 10° NW 11:47:33 71° SW 11:51:06 30° SSE
Cosmos 2016 Rocket 3.9 11:41:40 10° N 11:47:54 74° E 11:53:37 13° SSE
Cosmos 1864 Rocket 4.4 11:42:47 10° N 11:48:50 61° E 11:50:34 45° SE
Cosmos 2173 Rocket 4.1 11:43:26 10° NNW 11:49:43 74° W 11:56:00 10° S
SL-24 R/B - RUBIN 2 3.8 11:45:22 10° NW 11:50:29 76° SW 11:51:06 65° S
STARLINK-1049 4.5 11:48:28 10° WNW 11:52:29 43° SSW 11:52:29 43° SSW
Cosmos 1862 Rocket 4.4 11:49:02 10° SSW 11:53:28 51° W 11:57:49 10° NNW
